sat.trackr.live / text

‹ back to catalog

ONEWEB-0580

NORAD 54648 · 2022-166G

PAYLOAD ACTIVE UNKNOWN

§ Identity

Operator
Country
UK
Launch date
2022-12-08
Launch site
AFETR
Launch vehicle
Mass (kg)
RCS (m²)

Purposes: comms

External: N2YO · Heavens-Above · Gunter

§ Orbital elements

Epoch: 2026-09-20T03:55:58.331712Z

Period
108.94 min
Inclination
87.9280°
Eccentricity
0.0002292
Mean motion
13.21824701 rev/d
Perigee alt
1,176.0 km
Apogee alt
1,179.5 km
Semi-major
7,555.9 km
B*
-4.1754e-5
RAAN
225.0752°
Arg perigee
88.8104°
Mean anomaly
271.3292°
Rev number
18,409

§ Raw data

ONEWEB-05801 54648U 22166G   26263.16386958 -.00000004  00000+0 -41754-4 0  99992 54648  87.9280 225.0752 0002292  88.8104 271.3292 13.21824701184097

JSON: /api/v1/satellites/54648 · /tle

For live sub-satellite position, see the globe view (requires WebGL).

§ Visibility from observer

Set your observer location to see the next 7 days of passes ≥ 10°. The values pass through the URL so the page stays shareable.

No JS? Fill the form by hand. The geolocation button needs JavaScript.